Probability
0 0 0 0 0 0 0 0 0 0 0 0 0 0 0 0 0 0 0 0 0 0 0 0 0 0 0 0 0 0 0 0 0 0 0 0 0 0 0 0 0 0 0
0 0 0 0 0 0 0 0 0 0 0 0 0 0 0 0 0 0 0 0 0 0 0 0 0 0 0 0 0 0 0 0 0 0 0 0 0 0 0 0 0 0 0
0 0 0 0 0 0 0 0 0 0 0 0 0 0 0 0 0 0 0 0 0 0 0 0 0 0 0 0 0 0 0 0 0 0 0 0 0 0 0 0 0 0 0
0 0 0 0 0 0 0 0 0 0 0 0 0 0 0 0 0 0 0 0 0 0 0 0 0 0 0 0 0 0 0 0 0 0 0 0 0 0 0 0 0 0 0
0 0 0 0 0 0 0 0 0 0 0 0 0 0 0 0 0 0 0 0 0 0 0 0 0 0 0 0 0 0 0 0 0 0 0 0 0 0 0 0 0 0 0
0 0 0 0 0 0 0 0 0 0 0 0 0 0 0 0 0 0 0 0 0 0 0 0 0 0 0 0 0 0 0 0 0 0 0 0 0 0 0 0 0 0 0
0 0 0 0 0 0 0 0 0 0 0 0 0 0 0 0 0 0 0 0 0 0 0 0 0 0 0 0 0 0 0 0 0 0 0 0 0 0 0 0 0 0 0
0 0 0 0 0 0 0 0 0 0 0 0 0 0 0 0 0 0 0 0 0 0 0 0 0 0 0 0 0 0 0 0 0 0 0 0 0 0 0 0 0 0 0
0 0 0 0 0 0 0 0 0 0 0 0 0 0 0 0 0 0 0 0 0 0 0 0 0 0 0 0 0 0 0 0 0 0 0 0 0 0 0 0 0 0 0
0 0 0 0 0 0 0 0 0 0 0 0 0 0 0 0 0 0 0 0 0 0 0 0 0 0 0 0 0 0 0 0 0 0 0 0 0 0 0 0 0 0 0
0 0 0 0 0 0 0 0 0 0 0 0 0 0 0 0 0 0 0 0 0 0 0 0 0 0 0 0 0 0 0 0 0 0 0 0 0 0 0 0 0 0 0
0 0 0 0 0 0 0 0 0 0 0 0 0 0 0 0 0 0 0 0 0 0 0 0 0 0 0 0 0 0 0 0 0 0 0 0 0 0 0 0 0 0 0
0 0 0 0 0 0 0 0 0 0 0 0 0 0 0 0 0 0 0 0 0 0 0 0 0 0 0 0 0 0 0 0 0 0 0 0 0 0 0 0 0 0 0
0 0 0 0 0 0 0 0 0 0 0 0 0 0 0 0 0 0 0 0 0 0 0 0 0 0 0 0 0 0 0 0 0 0 0 0 0 0 0 0 0 0 0
0 0 0 0 0 0 0 0 0 0 0 0 0 0 0 0 0 0 0 0 0 0 0 0 0 0 0 0 0 0 0 0 0 0 0 0 0 0 0 0 0 0 0
0 0 0 0 0 0 0 0 0 0 0 0 0 0 0 0 0 0 0 0 0 0 0 0 0 0 0 0 0 0 0 0 0 0 0 0 0 0 0 0 0 0 0
0 0 0 0 0 0 0 0 0 0 0 0 0 0 0 0 0 0 0 0 0 0 0 0 0 0 0 0 0 0 0 0 0 0 0 0 0 0 0 0 0 0 0
0 0 0 0 0 0 0 0 0 0 0 0 0 0 0 0 0 0 0 0 0 0 0 0 0 0 0 0 0 0 0 0 0 0 0 0 0 0 0 0 0 0 0
0 0 0 0 0 0 0 0 0 0 0 0 0 0 0 0 0 0 0 0 0 0 0 0 0 0 0 0 0 0 0 0 0 0 0 0 0 0 0 0 0 0 0
0 0 0 0 0 0 0 0 0 0 0 0 0 0 0 0 0 0 0 0 0 0 0 0 0 0 0 0 0 0 0 0 0 0 0 0 0 0 0 0 0 0 0
0 0 0 0 0 0 0 0 0 0 0 0 0 0 0 0 0 0 0 0 0 0 0 0 0 0 0 0 0 0 0 0 0 0 0 0 0 0 0 0 0 0 0
0 0 0 0 0 0 0 0 0 0 0 0 0 0 0 0 0 0 0 0 0 0 0 0 0 0 0 0 0 0 0 0 0 0 0 0 0 0 0 0 0 0 0
0 0 0 0 0 0 0 0 0 0 0 0 0 0 0 0 0 0 0 0 0 0 0 0 0 0 0 0 0 0 0 0 0 0 0 0 0 0 0 0 0 0 0
0 0 0 0 0 0 0 0 0 0 0 0 0 0 0 0 0 0 0 0 0 0 0 0 0 0 0 0 0 0 0 0 0 0 0 0 0 0 0 0 0 0 0
0 0 0 0 0 0 0 0 0 0 0 0 0 0 0 0 0 0 0 0 0 0 0 0 0 0 0 0 0 0 0 0 0 0 0 0 0 0 0 0 0 0 0
0 0 0 0 0 0 0 0 0 0 0 0 0 0 0 0 0 0 0 0 0 0 0 0 0 0 0 0 0 0 0 0 0 0 0 0 0 0 0 0 0 0 0
Height
5523 5525 5529 5534 5535 5537 5540 5542 5543 5544 5543 5543 5543 5544 5544 5544 5544 5543 5544 5545 5548 5553 5559 5564 5568 5572 5574 5575 5575 5576 5577 5578 5581 5584 5585 5585 5586 5587 5586 5586 5587 5587 5584
5505 5507 5510 5515 5518 5523 5527 5528 5529 5530 5530 5530 5530 5531 5531 5531 5531 5531 5532 5533 5536 5541 5547 5551 5555 5559 5561 5561 5563 5563 5563 5566 5568 5571 5572 5573 5574 5574 5572 5572 5573 5572 5568
5486 5489 5493 5499 5505 5508 5512 5516 5516 5518 5518 5518 5518 5518 5517 5517 5518 5518 5520 5522 5526 5531 5535 5539 5543 5546 5548 5550 5550 5551 5552 5554 5556 5560 5560 5561 5562 5561 5560 5560 5560 5558 5555
5471 5473 5477 5482 5489 5494 5498 5502 5503 5505 5508 5508 5507 5507 5506 5506 5507 5509 5511 5514 5516 5520 5524 5528 5531 5534 5536 5537 5539 5539 5540 5542 5545 5546 5546 5548 5549 5548 5548 5547 5546 5545 5542
5457 5458 5463 5468 5474 5480 5485 5488 5490 5492 5496 5497 5496 5496 5496 5497 5498 5499 5501 5504 5507 5510 5514 5517 5519 5522 5524 5526 5527 5528 5529 5530 5532 5533 5534 5536 5537 5536 5536 5535 5534 5533 5530
5447 5445 5450 5457 5463 5469 5474 5477 5479 5482 5484 5485 5485 5486 5486 5487 5489 5490 5492 5494 5497 5500 5503 5505 5507 5510 5512 5514 5516 5516 5517 5516 5517 5519 5521 5523 5524 5524 5524 5523 5523 5522 5520
5441 5440 5443 5449 5455 5460 5463 5466 5469 5473 5474 5475 5476 5476 5476 5478 5480 5481 5483 5485 5487 5489 5491 5493 5495 5497 5499 5502 5503 5503 5503 5502 5503 5505 5507 5509 5511 5512 5512 5511 5510 5509 5509
5438 5437 5439 5443 5448 5452 5454 5458 5461 5464 5465 5466 5466 5466 5467 5468 5471 5472 5471 5474 5476 5478 5479 5480 5482 5484 5486 5488 5488 5488 5488 5488 5489 5490 5493 5494 5496 5498 5499 5499 5498 5498 5500
5437 5436 5438 5440 5443 5446 5450 5452 5453 5454 5456 5457 5458 5458 5458 5459 5461 5462 5462 5462 5464 5466 5467 5468 5469 5470 5473 5473 5473 5473 5473 5473 5474 5476 5477 5479 5481 5483 5484 5486 5486 5486 5488
5436 5435 5436 5438 5441 5442 5444 5445 5445 5446 5447 5448 5448 5449 5450 5450 5451 5451 5451 5451 5452 5452 5453 5455 5455 5456 5457 5458 5458 5457 5458 5458 5459 5460 5462 5463 5465 5467 5469 5471 5472 5473 5475
5435 5434 5435 5435 5437 5437 5437 5437 5437 5438 5438 5439 5440 5440 5439 5439 5440 5439 5439 5439 5438 5437 5438 5439 5441 5441 5441 5442 5442 5442 5443 5443 5443 5445 5446 5448 5449 5452 5454 5455 5457 5460 5462
5432 5431 5431 5430 5430 5430 5429 5429 5429 5429 5429 5429 5429 5428 5427 5427 5426 5427 5427 5425 5424 5423 5422 5423 5424 5424 5424 5425 5426 5426 5427 5428 5429 5430 5431 5432 5434 5436 5438 5439 5441 5445 5448
5426 5425 5424 5423 5422 5421 5420 5419 5418 5418 5417 5417 5417 5417 5416 5414 5413 5413 5412 5411 5409 5407 5406 5406 5407 5407 5408 5409 5409 5410 5411 5412 5413 5414 5415 5417 5418 5420 5421 5423 5425 5427 5432
5418 5416 5414 5412 5411 5410 5408 5407 5406 5405 5404 5403 5403 5402 5401 5400 5399 5398 5397 5395 5393 5391 5389 5389 5389 5390 5390 5391 5392 5393 5394 5395 5396 5397 5398 5400 5402 5404 5405 5407 5409 5410 5415
5409 5406 5403 5401 5399 5397 5396 5394 5393 5391 5390 5389 5388 5386 5385 5384 5383 5382 5380 5379 5378 5375 5373 5373 5374 5375 5374 5374 5375 5376 5376 5377 5378 5379 5381 5383 5385 5387 5389 5391 5393 5395 5398
5398 5395 5392 5389 5386 5383 5381 5380 5378 5377 5375 5373 5371 5370 5368 5366 5364 5363 5362 5362 5361 5359 5357 5356 5356 5357 5357 5357 5358 5359 5359 5360 5361 5363 5364 5366 5368 5370 5372 5373 5376 5379 5381
5387 5384 5380 5377 5373 5370 5367 5364 5362 5360 5358 5356 5354 5352 5350 5347 5345 5344 5343 5343 5341 5339 5338 5337 5337 5337 5338 5338 5338 5339 5340 5341 5342 5344 5346 5347 5349 5352 5354 5356 5358 5361 5364
5376 5372 5368 5364 5361 5357 5353 5349 5346 5343 5339 5337 5335 5333 5330 5328 5325 5323 5322 5321 5320 5319 5317 5317 5317 5317 5317 5318 5318 5319 5320 5321 5322 5324 5325 5327 5330 5333 5335 5337 5340 5341 5344
5364 5359 5355 5350 5345 5341 5336 5332 5328 5324 5321 5317 5314 5310 5307 5305 5303 5301 5299 5298 5297 5296 5296 5296 5295 5295 5296 5297 5297 5298 5299 5300 5301 5303 5305 5307 5310 5313 5315 5317 5319 5321 5323
5351 5345 5340 5334 5328 5323 5318 5313 5308 5303 5299 5295 5291 5287 5284 5281 5279 5277 5274 5273 5272 5271 5271 5271 5271 5271 5272 5273 5275 5276 5277 5278 5279 5281 5283 5285 5287 5290 5293 5295 5297 5299 5301
5335 5328 5321 5315 5308 5302 5296 5290 5285 5279 5274 5270 5266 5261 5258 5254 5252 5250 5248 5245 5244 5243 5243 5243 5243 5243 5244 5246 5248 5249 5251 5253 5254 5256 5258 5260 5263 5265 5268 5271 5273 5274 5276
5315 5307 5299 5291 5284 5277 5270 5263 5257 5252 5246 5242 5237 5233 5228 5225 5222 5220 5218 5216 5214 5213 5213 5213 5213 5214 5215 5216 5218 5220 5223 5225 5227 5229 5232 5234 5236 5239 5241 5244 5245 5247 5249
5291 5281 5272 5264 5256 5249 5242 5235 5229 5223 5218 5212 5207 5203 5198 5194 5191 5188 5185 5183 5182 5181 5181 5181 5182 5182 5184 5186 5188 5191 5194 5197 5200 5203 5206 5209 5212 5214 5216 5219 5221 5222 5223
5266 5257 5248 5240 5232 5224 5217 5209 5203 5197 5191 5186 5181 5176 5172 5168 5164 5161 5158 5155 5153 5152 5152 5152 5152 5153 5154 5157 5160 5163 5167 5171 5175 5179 5183 5187 5191 5195 5198 5200 5202 5203 5205
5250 5241 5232 5224 5216 5208 5200 5193 5187 5180 5175 5169 5164 5158 5153 5149 5145 5141 5138 5135 5132 5131 5130 5129 5129 5130 5131 5134 5138 5142 5147 5151 5155 5159 5165 5171 5176 5181 5184 5187 5190 5192 5194
5243 5234 5226 5217 5209 5202 5194 5187 5180 5173 5167 5161 5155 5150 5145 5140 5135 5130 5126 5123 5119 5116 5114 5113 5113 5114 5116 5119 5123 5128 5134 5138 5143 5148 5155 5162 5168 5173 5177 5181 5184 5187 5191
Wind_Speed
52 52 57 54 52 51 52 45 43 44 46 48 45 45 45 43 41 41 43 47 46 44 36 37 38 39 39 39 39 40 41 42 43 41 40 39 40 40 41 42 44 48 51
53 53 56 53 54 59 53 46 42 40 41 44 44 43 41 41 41 40 41 42 40 39 37 38 37 38 38 37 37 37 38 39 39 38 39 37 37 39 39 41 44 45 46
48 51 52 51 49 52 53 45 40 38 37 40 42 39 36 36 38 37 40 38 33 35 37 37 35 37 36 35 35 35 36 36 37 40 39 35 35 38 38 39 41 41 41
39 45 43 47 50 43 42 39 38 36 38 41 42 40 34 32 33 33 35 37 36 33 34 35 37 36 36 36 37 37 37 38 39 40 40 38 37 37 38 38 39 40 38
34 38 41 39 42 40 41 38 39 44 43 39 43 41 36 35 34 34 36 38 36 34 34 37 38 37 36 37 39 39 40 42 42 41 41 41 40 39 40 39 39 38 36
27 30 33 36 36 35 39 40 40 40 34 39 44 42 38 35 33 35 36 36 34 34 35 37 39 41 41 39 39 40 42 43 44 44 44 43 42 41 41 42 40 37 36
18 21 26 27 30 32 34 36 40 36 35 37 37 35 33 34 33 32 32 32 34 36 37 38 39 41 43 43 41 41 42 43 45 46 47 46 44 44 43 42 41 37 35
12 12 19 18 17 19 20 23 26 29 32 30 31 33 33 33 31 29 31 33 34 35 37 39 40 42 42 42 42 42 43 45 47 47 48 48 47 46 45 43 41 37 35
11 9 13 13 14 16 20 23 24 27 30 31 31 30 30 29 29 30 33 36 37 38 40 42 43 43 43 42 43 44 45 46 47 48 49 49 48 48 47 46 43 39 36
14 10 12 16 21 26 27 26 27 29 32 33 30 27 27 28 30 32 33 37 40 43 45 45 45 44 44 45 46 46 47 47 48 48 49 49 48 49 49 48 45 42 38
17 16 17 19 22 25 27 28 29 31 32 32 29 27 28 30 30 33 38 41 43 44 46 49 49 47 47 48 48 48 49 49 50 50 50 50 50 50 51 51 50 47 42
19 21 25 27 28 28 29 30 31 32 33 32 31 30 29 31 33 36 41 44 46 47 46 47 50 50 49 50 49 50 50 50 50 51 51 52 52 53 53 53 54 52 46
25 26 28 32 34 33 33 33 34 34 34 35 36 37 37 36 37 40 43 46 47 47 47 48 49 48 48 48 48 49 49 50 51 50 50 52 53 54 54 54 55 54 50
30 33 35 36 38 40 40 40 39 38 38 39 41 43 44 43 42 44 46 46 47 46 44 45 46 46 47 47 47 48 49 51 51 51 51 52 53 54 54 53 54 54 51
34 37 39 41 43 43 44 46 46 45 46 47 47 47 47 47 48 48 47 47 46 46 45 46 46 48 48 49 49 50 51 52 52 52 53 52 52 52 52 52 52 53 52
35 36 38 41 42 44 45 46 48 49 50 50 51 52 51 51 51 50 51 50 48 49 48 48 50 51 51 51 52 52 53 53 53 53 53 53 52 51 51 51 51 51 52
36 37 38 39 40 42 44 47 49 50 51 52 52 53 54 53 52 52 53 52 52 53 52 52 53 53 53 54 54 54 55 55 56 56 56 56 55 54 53 53 53 53 54
36 37 39 40 42 43 45 46 48 49 51 52 53 54 55 56 56 56 57 56 57 57 56 56 56 56 57 57 57 57 57 57 57 57 56 56 56 55 55 56 56 57 58
38 39 40 42 43 45 46 48 49 51 53 55 57 58 59 60 60 61 62 61 61 61 61 62 61 61 61 61 61 60 60 60 60 60 59 59 59 59 59 60 60 61 62
43 44 45 47 48 49 51 52 54 56 57 59 61 62 64 65 66 66 67 67 67 67 67 67 67 67 66 66 65 65 65 66 66 66 66 66 66 66 66 66 66 67 68
50 52 53 55 56 58 59 60 62 63 65 66 68 69 70 72 72 73 74 74 75 75 75 74 74 74 74 74 73 73 73 73 73 73 72 72 72 72 72 71 71 72 72
61 62 63 64 65 66 67 68 69 70 71 72 73 74 76 77 77 78 78 79 79 80 80 79 79 79 80 79 79 79 78 78 77 77 76 76 76 75 74 73 72 71 70
66 66 66 67 67 67 68 69 69 69 70 71 72 72 73 74 75 76 76 77 77 78 78 78 78 78 78 78 77 76 74 73 72 72 70 68 66 64 62 59 57 56 55
59 58 57 56 56 56 55 55 55 55 56 56 56 57 58 59 60 62 63 64 65 67 68 68 69 70 70 70 69 67 64 61 57 55 53 50 48 45 42 40 38 37 37
43 41 40 39 38 37 36 35 34 34 35 35 36 37 38 39 40 41 42 43 45 46 47 48 49 50 51 51 50 47 45 42 41 40 39 37 34 31 28 25 23 22 21
34 33 32 30 29 28 27 27 26 26 26 26 26 26 26 26 26 26 26 26 26 27 27 28 28 29 29 30 30 29 28 27 27 27 27 25 23 20 18 15 14 14 14
Wind_Direction
255 247 251 252 254 263 261 260 266 269 270 269 271 273 275 271 266 261 255 250 240 232 230 238 244 251 256 260 262 262 262 262 255 254 256 260 267 270 270 271 271 272 273
257 246 244 253 260 260 259 268 271 271 272 268 269 277 277 270 269 263 249 243 233 227 233 239 245 253 260 263 264 266 267 262 257 257 255 258 266 268 270 272 274 276 279
263 254 247 248 251 255 254 255 262 268 271 270 273 279 281 275 269 261 246 231 227 231 234 240 247 255 259 263 265 267 267 262 259 260 256 259 265 267 269 270 273 278 281
267 255 251 250 245 248 245 248 257 263 272 277 274 273 270 268 265 257 245 234 227 230 238 244 250 256 260 264 266 267 266 262 260 262 259 260 262 264 268 271 275 277 281
272 255 244 245 248 248 247 256 262 269 276 267 267 270 267 264 264 256 247 240 236 237 244 249 254 259 263 265 266 266 266 264 263 262 261 260 260 262 267 271 274 277 281
278 255 244 237 241 250 252 260 265 267 259 258 262 268 267 260 256 251 251 247 242 244 249 253 257 261 262 264 265 266 266 266 264 263 262 260 260 261 264 268 273 276 279
288 242 235 232 239 245 255 260 260 256 253 255 261 265 262 254 248 250 255 257 256 256 256 259 262 263 263 262 263 265 267 267 265 262 261 261 259 260 262 266 270 273 276
301 228 216 228 240 252 258 256 250 248 250 250 254 256 252 249 248 251 257 261 262 263 263 261 261 262 262 263 264 265 266 266 266 264 260 260 260 259 261 263 266 268 271
308 246 217 220 232 243 249 253 254 254 247 248 252 252 253 253 251 253 259 264 266 266 266 265 263 262 262 263 264 265 266 266 266 264 260 258 258 257 258 261 263 266 268
299 265 234 236 236 238 245 255 259 253 249 250 251 253 256 259 259 264 269 271 269 267 267 266 264 264 264 264 264 264 264 264 264 263 261 260 259 259 258 259 262 264 265
288 267 248 244 252 256 259 265 264 260 257 253 254 259 263 265 266 272 276 276 275 271 268 267 266 266 266 264 263 263 262 261 261 261 260 260 260 259 258 259 261 262 263
282 273 264 258 260 264 264 265 265 264 264 259 260 266 268 271 275 278 281 281 277 272 268 266 265 264 264 262 260 258 258 258 259 259 260 260 261 261 259 258 259 261 261
276 277 276 267 262 262 263 267 269 269 268 266 268 271 273 274 274 276 279 281 280 274 268 265 263 262 261 259 258 258 258 258 258 259 260 261 261 262 261 260 259 260 261
278 274 274 274 270 267 266 268 269 271 271 270 271 273 274 275 276 277 278 279 279 275 269 266 264 262 260 260 260 260 259 259 260 261 261 261 261 261 260 258 258 258 260
282 278 275 272 270 270 271 271 269 268 270 272 271 271 273 273 274 276 277 277 273 271 269 268 266 263 262 261 261 261 261 262 262 262 262 262 261 261 260 258 257 257 258
284 283 280 277 276 275 273 272 271 269 269 270 271 271 272 272 274 276 277 274 269 267 268 268 268 267 265 264 263 262 262 262 261 261 261 260 260 259 259 258 257 256 257
289 285 283 281 279 278 277 275 274 273 273 272 271 272 273 274 274 274 273 271 269 269 269 268 268 267 267 266 266 265 265 264 263 261 260 259 259 258 258 258 258 257 257
296 292 288 285 282 279 277 275 274 273 273 273 272 271 272 272 273 272 272 272 271 270 270 269 268 267 266 266 266 266 266 266 266 265 264 262 261 260 260 260 260 260 260
299 296 293 290 287 285 282 280 278 276 275 274 274 274 274 273 273 273 272 271 270 270 269 268 267 266 266 265 266 266 266 266 266 266 266 265 265 264 264 264 264 264 264
299 296 293 290 288 285 283 282 280 278 277 276 275 275 275 274 274 273 273 272 272 271 270 269 268 267 266 266 266 266 266 267 267 267 267 267 267 267 266 267 267 267 268
300 297 295 292 290 287 285 283 281 279 278 277 276 275 274 274 273 273 272 272 271 270 270 269 269 268 268 268 267 267 267 268 268 268 268 268 268 269 269 269 270 270 270
299 296 293 291 289 287 285 283 282 281 280 279 278 277 276 275 274 274 273 272 272 271 271 270 270 269 269 269 269 269 269 269 269 269 269 270 270 271 271 272 273 273 273
299 297 295 294 292 290 289 287 286 285 283 282 281 280 279 278 278 277 276 276 275 274 273 272 271 271 270 270 269 268 268 268 268 268 268 269 270 271 271 271 271 270 269
305 304 302 301 299 298 296 294 293 291 289 288 286 285 283 281 280 279 277 276 275 274 272 271 270 269 269 268 268 267 267 266 265 264 263 262 262 262 261 261 261 260 260
321 321 320 319 317 316 314 313 312 310 308 305 302 299 296 293 290 287 284 281 279 277 274 271 269 268 266 265 264 263 262 260 257 254 252 250 248 246 244 243 244 243 240
349 349 349 349 349 349 349 348 347 345 341 336 328 322 316 312 308 305 301 298 294 289 282 275 270 266 262 257 252 248 246 243 239 234 231 228 227 223 217 211 206 201 198